CZ-6A DEB

Satellite information

Favourite Embed

Satellite Type and Status

DEBRISIN ORBIT

Key statistics

Satellite CZ-6A DEB at a glance.

Uptime

1132

Days in orbit

Revolutions

≈ 14.1

Per day

Orbit

SSO

Sun Synchronous Orbit

Inclination

98.8

Latest

Satellite identification and parameters

Extended collection of information and parameters for CZ-6A DEB.

Object identification

Identified? True

Debris? True

Object name: CZ-6A DEB

International designator: 2022-151YF

Object number (NORAD): 55533

Object ID (CCSDS): 55533

Country: PEOPLES REPUBLIC OF CHINA (PRC)

Current information (Y/N): Y

RCS size: SMALL

Orbital parameters

Period: 102.127 minutes

Inclination: 98.8328 deg

SMA: 7237.481 km

Apoapsis: 890.034 km

Periapsis: 828.659 km

RAAN: 349.4883 deg

Eccentricy: 0.00424014

Argument of periapsis: 127.3592 deg

Mean anomaly: 233.1453 deg

Mean motion: 14.10007969 rev/day

Mean motion (dot): 0.00000144 rev/day2

B* drag term: 0.00010510099 1/REarth

Two-line elements (TLE)

Creation date: Dec. 17, 2025, 2:25 a.m.

Reference frame: TEME

Reference center: EARTH

Epoch: Dec. 16, 2025, 10:19 p.m. UTC

TLE line 0: 0 CZ-6A DEB

TLE line 1: 1 55533U 22151YF 25350.93006037 .00000144 00000-0 10510-3 0 9994

TLE line 2: 2 55533 98.8328 349.4883 0042401 127.3592 233.1453 14.10007969154019

Live tracking on map

Real-time ground track for satellite CZ-6A DEB.

In-orbit conjunctions

A list of the most updated potential collisions computed for object CZ-6A DEB.

Target Orbit TCA Probability of collision Miss distance Type
SL-16 DEB LEO 2025-02-13 23:09:41 0.0001078255 307.0 (m) DEBRIS
FENGYUN 1C DEB SSO 2025-01-14 03:43:05 0.0001598753 55.0 (m) DEBRIS

Associated space launch

Chinese satellite reported for atmospheric/ocean/environmental/spatial parameter research purposes, details TBD.

CZ-6A DEB was lifted into orbit during the mission ‘Long March 6A | Yunhai 3’, on board a Long March 6A space rocket.

The launch took place on Nov. 11, 2022, 10:52 p.m. from Launch Complex 9A.

For more information about the launch, click the button.

Launch to space Long March 6A | Yunhai 3
Long March 6A | Yunhai 3

Agency: N/A

Status: Launch Successful

Launch date: Nov. 11, 2022, 10:52 p.m. UTC

Rocket: Long March 6A

Launch pad: Launch Complex 9A

Location: Taiyuan Satellite Launch Center, People's Republic of China

...

Latest news about this satellite

There are no fresh news available about this satellite. Check back as we update our databases every day.


Newsletter sign-up

Weekly statistics, charts and insights to help you stay on top of the space industry.